This demonstration page uses our WeatherBlox Daily Observations layout. Learn more.

Left ArrowRight Arrow

44.89941, -97.11507

Hourly Observations for September 23, 2018

Temp ( °F °C ) Dew Point ( °F °C ) Humidity (%) Winds ( mph kmh ) Pressure ( in mb ) Visibility ( mi km ) Precip ( " mm )
12:53 am 00:53 Clear 54 12.2 48 8.9 80 80 SSE 12 19 29.93 1014 10 16 0.00 0.00
1:53 am 01:53 Clear 53 11.7 49 9.4 86 86 SSE 13 20 29.93 1013 10 16 0.00 0.00
2:53 am 02:53 Clear 52 11.1 48 8.9 86 86 SSE 12 19 29.93 1014 10 16 0.00 0.00
3:53 am 03:53 Clear 51 10.6 48 8.9 89 89 SSE 10 17 29.92 1013 10 16 0.00 0.00
4:53 am 04:53 Clear 51 10.6 48 8.9 89 89 SSE 10 17 29.92 1013 10 16 0.00 0.00
5:53 am 05:53 Clear 50 10 48 8.9 93 93 SSE 12 19 29.91 1013 10 16 0.00 0.00
6:53 am 06:53 Clear 50 10 48 8.9 93 93 SSE 10 17 29.91 1013 10 16 0.00 0.00
7:53 am 07:53 Sunny 50 10 48 8.9 93 93 SSE 9 15 29.93 1013 10 16 0.00 0.00
8:53 am 08:53 Sunny 53 11.7 50 10 89 89 SE 9 15 29.92 1013 10 16 0.00 0.00
9:53 am 09:53 Sunny 57 13.9 51 10.6 81 81 SE 10 17 29.92 1013 10 16 0.00 0.00
10:53 am 10:53 Sunny 62 16.7 52 11.1 70 70 SE 9 15 29.90 1013 10 16 0.00 0.00
11:53 am 11:53 Sunny 65 18.3 53 11.7 66 66 ESE 10 17 29.87 1011 10 16 0.00 0.00
12:53 pm 12:53 Sunny 70 21.1 52 11.1 53 53 SE 16 26 29.83 1010 10 16 0.00 0.00
1:53 pm 13:53 Sunny 73 22.8 53 11.7 50 50 SSE 16 26 29.81 1010 10 16 0.00 0.00
2:53 pm 14:53 Sunny 74 23.3 55 12.8 52 52 SSE 16 26 29.78 1009 10 16 0.00 0.00
3:53 pm 15:53 Sunny 76 24.4 55 12.8 48 48 S 24 39 29.75 1008 10 16 0.00 0.00
4:53 pm 16:53 Sunny 76 24.4 57 13.9 52 52 SSE 16 26 29.74 1007 10 16 0.00 0.00
5:53 pm 17:53 Sunny 74 23.3 55 12.8 52 52 S 16 26 29.75 1007 10 16 0.00 0.00
6:53 pm 18:53 Sunny 70 21.1 54 12.2 57 57 S 12 19 29.76 1008 10 16 0.00 0.00
7:53 pm 19:53 Clear 67 19.4 53 11.7 61 61 SSE 7 11 29.77 1008 10 16 0.00 0.00
8:53 pm 20:53 Clear 65 18.3 53 11.7 66 66 SSE 10 17 29.76 1008 10 16 0.00 0.00
9:53 pm 21:53 Clear 63 17.2 53 11.7 70 70 SSE 10 17 29.75 1008 10 16 0.00 0.00
10:53 pm 22:53 Clear 63 17.2 54 12.2 73 73 SSE 16 26 29.75 1007 10 16 0.00 0.00
11:53 pm 23:53 Clear 63 17.2 54 12.2 73 73 S 14 22 29.76 1008 10 16 0.00 0.00

Powered by AerisWeather